No particular awareness of the weather is required.    There are no Weather-warnings


Meteo18 Weather Cam more information Meteo18 Weather Cam


Thunder radar more information blitzortung!


Rain radar more information rain snow radar


Visit our other weather sites:

Template documentation
and downloads

And another site



Weather Underground History page Text

Daily Summary for October 25, 2017 Units:  Metric    English   Both
« Previous Day
Next Day »
Daily Weekly Monthly Yearly Custom
  High: Low: Average:
Temperature: -17.8 °C -11.2 °C -9.2 °C
Dew Point: -17.8 °C -11.4 °C -10.3 °C
Humidity: Humidity % 67 % 89 %
Wind Speed: 0 km/h 0 km/h 2.3 km/h
Wind Gust: 0 km/h - -
Wind:- - South
Pressure: 0 hPa 34682.8 hPa -
Precipitation: 7.62 mm    
Historical Graphs
 
 
Tabular Data for October 25, 2017
Time Temperature Dew Point Pressure Wind Wind Speed Wind Gust Humidity Rainfall Rate (Hourly)
-17.8 °C -17.8 °C 0 hPa Calm     Humidity % 0 mm
00:02 -9.9 °C -10.2 °C 34740.4 hPa Calm     97 % 0 mm
00:12 -9.9 °C -10.2 °C 34740.4 hPa Calm   2.6 km/h 97 % 0 mm
00:17 -9.9 °C -10.2 °C 34750.5 hPa SSW 2.6 km/h 7.7 km/h 97 % 0 mm
00:22 -9.9 °C -10.2 °C 34750.5 hPa Calm   7.7 km/h 97 % 0 mm
00:27 -10 °C -10.3 °C 34740.4 hPa SSE 5.1 km/h 7.7 km/h 97 % 0 mm
00:32 -10.1 °C -10.3 °C 34740.4 hPa SE 5.1 km/h 10.3 km/h 97 % 0 mm
00:37 -10.1 °C -10.3 °C 34726.8 hPa South 5.1 km/h 10.3 km/h 97 % 0 mm
00:42 -10.1 °C -10.3 °C 34726.8 hPa SSE 2.6 km/h 10.3 km/h 97 % 0 mm
00:52 -10.1 °C -10.3 °C 34740.4 hPa Calm   7.7 km/h 97 % 0 mm
00:57 -10.1 °C -10.3 °C 34740.4 hPa South 2.6 km/h 5.1 km/h 97 % 0 mm
01:02 -10.1 °C -10.3 °C 34726.8 hPa Calm   5.1 km/h 97 % 0 mm
01:12 -10.1 °C -10.3 °C 34726.8 hPa SW 2.6 km/h 5.1 km/h 97 % 0 mm
01:22 -10.1 °C -10.3 °C 34726.8 hPa SSE 2.6 km/h 7.7 km/h 97 % 0 mm
01:27 -10.1 °C -10.4 °C 34726.8 hPa South 5.1 km/h 18.2 km/h 97 % 0 mm
01:32 -10.1 °C -10.4 °C 34726.8 hPa SW 5.1 km/h 18.2 km/h 97 % 0 mm
01:42 -10.1 °C -10.4 °C 34716.7 hPa SE 2.6 km/h 15.6 km/h 97 % 7.62 mm
01:47 -10.1 °C -10.4 °C 34716.7 hPa SE 10.3 km/h 12.9 km/h 97 % 7.62 mm
01:52 -10.1 °C -10.4 °C 34726.8 hPa South 5.1 km/h 12.9 km/h 97 % 7.62 mm
01:57 -10.1 °C -10.4 °C 34726.8 hPa SE 5.1 km/h 15.6 km/h 97 % 7.62 mm
02:02 -10.1 °C -10.4 °C 34726.8 hPa SW 10.3 km/h 15.6 km/h 97 % 7.62 mm
02:07 -10.1 °C -10.4 °C 34726.8 hPa SSW 7.7 km/h 18.2 km/h 97 % 7.62 mm
02:12 -10.1 °C -10.4 °C 34726.8 hPa SW 5.1 km/h 18.2 km/h 97 % 7.62 mm
02:17 -10.1 °C -10.4 °C 34726.8 hPa SSW 2.6 km/h 18.2 km/h 97 % 7.62 mm
02:22 -10.1 °C -10.4 °C 34726.8 hPa Calm   18.2 km/h 97 % 7.62 mm
02:32 -10.2 °C -10.4 °C 34726.8 hPa SE 7.7 km/h 10.3 km/h 97 % 7.62 mm
02:37 -10.2 °C -10.4 °C 34726.8 hPa SSW 7.7 km/h 15.6 km/h 97 % 0 mm
02:42 -10.2 °C -10.4 °C 34726.8 hPa South 2.6 km/h 15.6 km/h 97 % 0 mm
02:52 -10.2 °C -10.4 °C 34716.7 hPa SE 2.6 km/h 15.6 km/h 97 % 0 mm
02:57 -10.2 °C -10.4 °C 34716.7 hPa SE 5.1 km/h 12.9 km/h 97 % 0 mm
03:02 -10.2 °C -10.4 °C 34716.7 hPa SE 7.7 km/h 12.9 km/h 97 % 0 mm
03:07 -10.2 °C -10.5 °C 34716.7 hPa SSE 2.6 km/h 10.3 km/h 97 % 0 mm
03:12 -10.2 °C -10.5 °C 34716.7 hPa South 7.7 km/h 10.3 km/h 97 % 0 mm
03:17 -10.2 °C -10.5 °C 34726.8 hPa SSW 2.6 km/h 15.6 km/h 97 % 0 mm
03:27 -10.2 °C -10.5 °C 34726.8 hPa SE 18.2 km/h 18.2 km/h 97 % 0 mm
03:32 -10.2 °C -10.5 °C 34726.8 hPa SE 5.1 km/h 15.6 km/h 97 % 0 mm
03:37 -10.3 °C -10.6 °C 34726.8 hPa ESE 5.1 km/h 18.2 km/h 96 % 0 mm
03:42 -10.3 °C -10.7 °C 34726.8 hPa SE 2.6 km/h 18.2 km/h 96 % 0 mm
03:47 -10.3 °C -10.7 °C 34716.7 hPa Calm   18.2 km/h 96 % 0 mm
03:52 -10.3 °C -10.6 °C 34716.7 hPa SSW 2.6 km/h 18.2 km/h 97 % 0 mm
04:02 -10.3 °C -10.6 °C 34716.7 hPa SSE 2.6 km/h 12.9 km/h 97 % 0 mm
04:07 -10.3 °C -10.6 °C 34716.7 hPa SSE 5.1 km/h 15.6 km/h 97 % 0 mm
04:12 -10.3 °C -10.6 °C 34703.1 hPa ESE 2.6 km/h 15.6 km/h 97 % 0 mm
04:17 -10.3 °C -10.6 °C 34703.1 hPa ESE 5.1 km/h 15.6 km/h 97 % 0 mm
04:22 -10.3 °C -10.6 °C 34703.1 hPa ESE 7.7 km/h 15.6 km/h 97 % 0 mm
04:32 -10.3 °C -10.6 °C 34703.1 hPa SE 7.7 km/h 15.6 km/h 97 % 0 mm
04:42 -10.3 °C -10.6 °C 34703.1 hPa SSE 5.1 km/h 15.6 km/h 97 % 0 mm
04:47 -10.3 °C -10.6 °C 34703.1 hPa SE 2.6 km/h 12.9 km/h 97 % 0 mm
04:52 -10.3 °C -10.6 °C 34703.1 hPa SSE 2.6 km/h 12.9 km/h 97 % 0 mm
04:57 -10.3 °C -10.6 °C 34703.1 hPa Calm   10.3 km/h 97 % 0 mm
05:02 -10.3 °C -10.6 °C 34703.1 hPa SE 2.6 km/h 10.3 km/h 97 % 0 mm
05:12 -10.3 °C -10.6 °C 34703.1 hPa SE 2.6 km/h 15.6 km/h 97 % 0 mm
05:17 -10.3 °C -10.6 °C 34703.1 hPa Calm   15.6 km/h 97 % 0 mm
05:22 -10.3 °C -10.6 °C 34693 hPa Calm   15.6 km/h 97 % 0 mm
05:32 -10.3 °C -10.6 °C 34693 hPa SE 10.3 km/h 18.2 km/h 97 % 0 mm
05:42 -10.4 °C -10.7 °C 34693 hPa SE 2.6 km/h 12.9 km/h 97 % 0 mm
05:47 -10.4 °C -10.7 °C 34693 hPa South 5.1 km/h 15.6 km/h 97 % 0 mm
05:52 -10.4 °C -10.7 °C 34693 hPa Calm   15.6 km/h 97 % 0 mm
06:02 -10.4 °C -10.7 °C 34693 hPa SE 2.6 km/h 15.6 km/h 97 % 0 mm
06:12 -10.4 °C -10.7 °C 34693 hPa SE 2.6 km/h 12.9 km/h 97 % 0 mm
06:22 -10.4 °C -10.7 °C 34693 hPa SSW 5.1 km/h 7.7 km/h 97 % 0 mm
06:27 -10.4 °C -10.7 °C 34693 hPa SSE 5.1 km/h 10.3 km/h 97 % 0 mm
06:32 -10.4 °C -10.7 °C 34693 hPa ESE 2.6 km/h 10.3 km/h 97 % 0 mm
06:37 -10.5 °C -10.8 °C 34693 hPa Calm   7.7 km/h 97 % 0 mm
06:42 -10.5 °C -10.8 °C 34682.8 hPa Calm   7.7 km/h 97 % 0 mm
06:47 -10.5 °C -10.8 °C 34682.8 hPa Calm   10.3 km/h 97 % 0 mm
06:52 -10.5 °C -10.8 °C 34693 hPa Calm   10.3 km/h 97 % 0 mm
07:02 -10.6 °C -10.9 °C 34682.8 hPa Calm   7.7 km/h 96 % 0 mm
07:07 -10.7 °C -11 °C 34693 hPa Calm   2.6 km/h 96 % 0 mm
07:12 -10.7 °C -11.1 °C 34693 hPa Calm   2.6 km/h 96 % 0 mm
07:17 -10.8 °C -11.1 °C 34693 hPa Calm   5.1 km/h 96 % 0 mm
07:22 -10.8 °C -11.1 °C 34693 hPa Calm   5.1 km/h 97 % 0 mm
07:32 -10.8 °C -11.1 °C 34693 hPa Calm   2.6 km/h 97 % 0 mm
07:42 -10.9 °C -11.2 °C 34693 hPa Calm   2.6 km/h 97 % 0 mm
07:52 -10.9 °C -11.2 °C 34693 hPa Calm   2.6 km/h 97 % 0 mm
07:57 -10.9 °C -11.2 °C 34693 hPa Calm     97 % 0 mm
08:02 -10.9 °C -11.2 °C 34703.1 hPa Calm     97 % 0 mm
08:07 -10.9 °C -11.2 °C 34693 hPa Calm     97 % 0 mm
08:12 -10.9 °C -11.2 °C 34703.1 hPa Calm     97 % 0 mm
08:17 -11 °C -11.3 °C 34703.1 hPa Calm     97 % 0 mm
08:22 -11.1 °C -11.3 °C 34703.1 hPa Calm     97 % 0 mm
08:32 -11.2 °C -11.4 °C 34703.1 hPa Calm     97 % 0 mm
08:42 -11.2 °C -11.4 °C 34703.1 hPa Calm     97 % 0 mm
08:47 -11.2 °C -11.4 °C 34703.1 hPa Calm     97 % 0 mm
08:52 -11.2 °C -11.4 °C 34703.1 hPa Calm     97 % 0 mm
08:57 -11.2 °C -11.4 °C 34703.1 hPa Calm     97 % 0 mm
09:02 -11.1 °C -11.4 °C 34703.1 hPa Calm     97 % 0 mm
09:12 -11.1 °C -11.3 °C 34716.7 hPa Calm     97 % 0 mm
09:17 -11 °C -11.3 °C 34703.1 hPa Calm     97 % 0 mm
09:22 -10.9 °C -11.2 °C 34716.7 hPa Calm     97 % 0 mm
09:32 -10.7 °C -11 °C 34703.1 hPa Calm     97 % 0 mm
09:42 -10.6 °C -10.9 °C 34716.7 hPa Calm   2.6 km/h 97 % 0 mm
09:52 -10.4 °C -10.7 °C 34703.1 hPa Calm   2.6 km/h 97 % 0 mm
10:02 -10.3 °C -10.8 °C 34703.1 hPa SSE 5.1 km/h 5.1 km/h 95 % 0 mm
10:12 -10.3 °C -10.8 °C 34703.1 hPa Calm   5.1 km/h 95 % 0 mm
10:17 -10.2 °C -10.7 °C 34703.1 hPa Calm   12.9 km/h 95 % 0 mm
10:22 -10.1 °C -10.6 °C 34703.1 hPa Calm   12.9 km/h 95 % 0 mm
10:32 -10.2 °C -10.8 °C 34716.7 hPa South 2.6 km/h 12.9 km/h 93 % 0 mm
10:42 -10.1 °C -10.7 °C 34716.7 hPa Calm   10.3 km/h 93 % 0 mm
10:47 -10 °C -10.6 °C 34716.7 hPa South 5.1 km/h 10.3 km/h 93 % 0 mm
10:52 -9.9 °C -10.6 °C 34716.7 hPa SSW 2.6 km/h 10.3 km/h 92 % 0 mm
11:02 -9.7 °C -10.4 °C 34716.7 hPa SSE 7.7 km/h 10.3 km/h 92 % 0 mm
11:07 -9.7 °C -10.6 °C 34716.7 hPa SW 5.1 km/h 12.9 km/h 90 % 0 mm
11:12 -9.6 °C -10.5 °C 34716.7 hPa SW 7.7 km/h 12.9 km/h 90 % 0 mm
11:17 -9.6 °C -10.4 °C 34726.8 hPa Calm   15.6 km/h 90 % 0 mm
11:22 -9.4 °C -10.3 °C 34726.8 hPa SE 2.6 km/h 15.6 km/h 90 % 0 mm
11:32 -9.2 °C -10.3 °C 34726.8 hPa SSW 7.7 km/h 12.9 km/h 88 % 0 mm
11:52 -8.8 °C -10.1 °C 34726.8 hPa SSE 2.6 km/h 7.7 km/h 86 % 0 mm
11:57 -8.7 °C -10.2 °C 34726.8 hPa SE 5.1 km/h 10.3 km/h 84 % 0 mm
12:02 -8.7 °C -9.9 °C 34726.8 hPa South 7.7 km/h 10.3 km/h 86 % 0 mm
12:07 -8.6 °C -10.1 °C 34716.7 hPa ENE 2.6 km/h 10.3 km/h 84 % 0 mm
12:12 -8.4 °C -9.9 °C 34716.7 hPa SSW 10.3 km/h 10.3 km/h 84 % 0 mm
12:17 -8.5 °C -10.1 °C 34716.7 hPa SSW 5.1 km/h 10.3 km/h 83 % 0 mm
12:22 -8.4 °C -9.9 °C 34716.7 hPa SSW 5.1 km/h 10.3 km/h 84 % 0 mm
12:32 -8.3 °C -9.9 °C 34726.8 hPa East 2.6 km/h 10.3 km/h 83 % 0 mm
12:42 -8.2 °C -9.8 °C 34726.8 hPa Calm   15.6 km/h 83 % 0 mm
12:47 -8.2 °C -9.9 °C 34726.8 hPa SSE 2.6 km/h 12.9 km/h 82 % 0 mm
12:52 -8.2 °C -9.8 °C 34726.8 hPa Calm   12.9 km/h 83 % 0 mm
13:02 -8.2 °C -10.1 °C 34726.8 hPa Calm   10.3 km/h 81 % 0 mm
13:12 -8.1 °C -9.9 °C 34726.8 hPa SSW 5.1 km/h 10.3 km/h 81 % 0 mm
13:17 -8.1 °C -9.9 °C 34726.8 hPa SSW 5.1 km/h 10.3 km/h 81 % 0 mm
13:22 -8 °C -9.8 °C 34726.8 hPa SSW 2.6 km/h 10.3 km/h 81 % 0 mm
13:32 -7.7 °C -9.7 °C 34716.7 hPa Calm   10.3 km/h 80 % 0 mm
13:42 -7.6 °C -9.6 °C 34716.7 hPa SW 7.7 km/h 7.7 km/h 79 % 0 mm
13:52 -7.5 °C -9.7 °C 34716.7 hPa Calm   10.3 km/h 78 % 0 mm
14:02 -7.3 °C -9.5 °C 34716.7 hPa Calm   10.3 km/h 78 % 0 mm
14:12 -7.3 °C -9.4 °C 34703.1 hPa SW 5.1 km/h 10.3 km/h 78 % 0 mm
14:17 -7.3 °C -9.6 °C 34703.1 hPa SSE 5.1 km/h 15.6 km/h 77 % 0 mm
14:22 -7.1 °C -9.2 °C 34703.1 hPa SW 5.1 km/h 15.6 km/h 78 % 0 mm
14:32 -7 °C -9.4 °C 34703.1 hPa SSW 5.1 km/h 15.6 km/h 76 % 0 mm
14:42 -6.9 °C -9.3 °C 34703.1 hPa SSW 5.1 km/h 12.9 km/h 76 % 0 mm
14:52 -6.9 °C -9.6 °C 34703.1 hPa South 7.7 km/h 12.9 km/h 74 % 0 mm
15:02 -6.8 °C -9.3 °C 34693 hPa South 5.1 km/h 15.6 km/h 75 % 0 mm
15:07 -6.6 °C -9.3 °C 34693 hPa WSW 7.7 km/h 15.6 km/h 74 % 0 mm
15:12 -6.6 °C -9.1 °C 34693 hPa SSW 5.1 km/h 15.6 km/h 75 % 0 mm
15:22 -6.6 °C -9.3 °C 34693 hPa SSW 2.6 km/h 12.9 km/h 73 % 0 mm
15:32 -6.3 °C -9.3 °C 34703.1 hPa SW 7.7 km/h 12.9 km/h 71 % 0 mm
15:42 -6.4 °C -9.2 °C 34703.1 hPa Calm   10.3 km/h 73 % 0 mm
15:47 -6.2 °C -9.1 °C 34703.1 hPa Calm   10.3 km/h 72 % 0 mm
15:52 -6.2 °C -9.2 °C 34703.1 hPa SSW 5.1 km/h 10.3 km/h 71 % 0 mm
15:57 -6.2 °C -9.3 °C 34703.1 hPa Calm   12.9 km/h 71 % 0 mm
16:02 -6.1 °C -9.2 °C 34693 hPa Calm   12.9 km/h 70 % 0 mm
16:12 -5.9 °C -9.1 °C 34703.1 hPa SW 2.6 km/h 10.3 km/h 70 % 0 mm
16:17 -5.9 °C -9.2 °C 34693 hPa WSW 2.6 km/h 10.3 km/h 69 % 0 mm
16:22 -5.9 °C -9.2 °C 34693 hPa Calm   10.3 km/h 69 % 0 mm
16:32 -5.8 °C -9.2 °C 34703.1 hPa Calm   10.3 km/h 68 % 0 mm
16:37 -5.8 °C -9.3 °C 34703.1 hPa WSW 2.6 km/h 7.7 km/h 68 % 0 mm
16:42 -5.8 °C -9.1 °C 34703.1 hPa Calm   7.7 km/h 69 % 0 mm
16:47 -5.8 °C -9.2 °C 34703.1 hPa Calm   7.7 km/h 68 % 0 mm
16:52 -5.8 °C -9.1 °C 34693 hPa Calm   7.7 km/h 69 % 0 mm
16:57 -5.6 °C -9.1 °C 34693 hPa Calm   5.1 km/h 68 % 0 mm
17:02 -5.6 °C -9.1 °C 34703.1 hPa Calm   5.1 km/h 68 % 0 mm
17:12 -5.6 °C -9.1 °C 34693 hPa Calm   5.1 km/h 67 % 0 mm
17:17 -5.6 °C -9.1 °C 34693 hPa Calm   7.7 km/h 68 % 0 mm
17:27 -5.5 °C -8.9 °C 34703.1 hPa Calm   7.7 km/h 68 % 0 mm
17:32 -5.4 °C -9 °C 34703.1 hPa Calm   7.7 km/h 67 % 0 mm
17:42 -5.7 °C -9 °C 34703.1 hPa Calm   5.1 km/h 69 % 0 mm
17:47 -5.7 °C -9 °C 34703.1 hPa Calm   5.1 km/h 69 % 0 mm
17:52 -5.7 °C -9 °C 34703.1 hPa Calm   5.1 km/h 69 % 0 mm
18:12 -5.6 °C -9.1 °C 34703.1 hPa Calm   2.6 km/h 67 % 0 mm
18:17 -5.7 °C -9.1 °C 34703.1 hPa Calm   2.6 km/h 68 % 0 mm
18:22 -5.9 °C -9.1 °C 34703.1 hPa East 2.6 km/h 2.6 km/h 70 % 0 mm
18:27 -6.3 °C -9.2 °C 34703.1 hPa East 2.6 km/h 2.6 km/h 72 % 0 mm
18:32 -6.6 °C -9.2 °C 34703.1 hPa Calm   5.1 km/h 74 % 0 mm
18:37 -6.8 °C -9.3 °C 34703.1 hPa Calm   5.1 km/h 75 % 0 mm
18:42 -6.9 °C -9.2 °C 34703.1 hPa Calm   2.6 km/h 77 % 0 mm
18:57 -7.7 °C -9.4 °C 34703.1 hPa Calm     82 % 0 mm
19:02 -7.8 °C -9.5 °C 34703.1 hPa Calm     82 % 0 mm
19:12 -8 °C -9.5 °C 34703.1 hPa Calm     84 % 0 mm
19:17 -8.2 °C -9.6 °C 34703.1 hPa Calm     85 % 0 mm
19:22 -8.3 °C -9.6 °C 34703.1 hPa Calm     86 % 0 mm
19:27 -8.4 °C -9.7 °C 34716.7 hPa East 2.6 km/h   86 % 0 mm
19:32 -8.4 °C -9.7 °C 34716.7 hPa NNE 2.6 km/h   87 % 0 mm
19:37 -8.4 °C -9.7 °C 34716.7 hPa Calm   5.1 km/h 87 % 0 mm
19:42 -8.4 °C -9.7 °C 34716.7 hPa Calm   5.1 km/h 87 % 0 mm
19:47 -8.6 °C -9.8 °C 34716.7 hPa NNW 2.6 km/h 2.6 km/h 87 % 0 mm
19:52 -8.7 °C -9.7 °C 34716.7 hPa Calm   2.6 km/h 89 % 0 mm
19:57 -8.9 °C -9.9 °C 34716.7 hPa NW 2.6 km/h 2.6 km/h 89 % 0 mm
20:02 -9 °C -9.9 °C 34716.7 hPa NW 2.6 km/h 2.6 km/h 90 % 0 mm
20:12 -9.1 °C -9.9 °C 34716.7 hPa Calm   2.6 km/h 91 % 0 mm
20:17 -9.3 °C -10.1 °C 34716.7 hPa NW 2.6 km/h 2.6 km/h 91 % 0 mm
20:22 -9.3 °C -10.1 °C 34703.1 hPa Calm   2.6 km/h 92 % 0 mm
20:32 -9.3 °C -9.9 °C 34716.7 hPa Calm   2.6 km/h 93 % 0 mm
20:42 -9.6 °C -10.2 °C 34716.7 hPa NW 2.6 km/h 2.6 km/h 93 % 0 mm
20:47 -9.5 °C -10.1 °C 34716.7 hPa North 2.6 km/h 2.6 km/h 94 % 0 mm
20:52 -9.4 °C -10 °C 34716.7 hPa Calm   2.6 km/h 94 % 0 mm
20:57 -9.4 °C -9.9 °C 34716.7 hPa Calm   2.6 km/h 94 % 0 mm
21:02 -9.5 °C -10.1 °C 34716.7 hPa Calm   2.6 km/h 93 % 0 mm
21:12 -9.6 °C -10.2 °C 34716.7 hPa Calm   2.6 km/h 94 % 0 mm
21:17 -9.7 °C -10.2 °C 34716.7 hPa Calm   2.6 km/h 94 % 0 mm
21:22 -9.7 °C -10.2 °C 34716.7 hPa Calm   2.6 km/h 94 % 0 mm
21:27 -9.7 °C -10.3 °C 34716.7 hPa Calm   2.6 km/h 94 % 0 mm
21:32 -9.7 °C -10.3 °C 34716.7 hPa Calm   2.6 km/h 94 % 0 mm
21:42 -9.8 °C -10.3 °C 34716.7 hPa North 5.1 km/h 5.1 km/h 94 % 0 mm
21:52 -9.8 °C -10.4 °C 34716.7 hPa Calm   5.1 km/h 94 % 0 mm
21:57 -10 °C -10.6 °C 34716.7 hPa Calm   5.1 km/h 94 % 0 mm
22:02 -10 °C -10.4 °C 34716.7 hPa Calm   5.1 km/h 95 % 0 mm
22:12 -9.9 °C -10.3 °C 34726.8 hPa Calm   5.1 km/h 95 % 0 mm
22:17 -9.8 °C -10.3 °C 34726.8 hPa Calm   5.1 km/h 95 % 0 mm
22:22 -9.9 °C -10.5 °C 34726.8 hPa Calm   5.1 km/h 94 % 0 mm
22:27 -10 °C -10.4 °C 34726.8 hPa Calm     95 % 0 mm
22:32 -10.1 °C -10.6 °C 34726.8 hPa Calm     94 % 0 mm
22:37 -10.2 °C -10.7 °C 34726.8 hPa Calm     94 % 0 mm
22:44 -10.2 °C -10.7 °C 34726.8 hPa Calm     95 % 0 mm
22:52 -10.2 °C -10.7 °C 34740.4 hPa Calm     95 % 0 mm
23:02 -10.3 °C -10.8 °C 34740.4 hPa Calm     95 % 0 mm
23:07 -10.4 °C -10.8 °C 34740.4 hPa Calm   2.6 km/h 95 % 0 mm
23:12 -10.4 °C -10.9 °C 34740.4 hPa NNE 2.6 km/h 2.6 km/h 95 % 0 mm
23:17 -10.5 °C -10.8 °C 34740.4 hPa NNE 5.1 km/h 5.1 km/h 96 % 0 mm
23:22 -10.4 °C -10.7 °C 34740.4 hPa North 2.6 km/h 5.1 km/h 96 % 0 mm
23:32 -10.4 °C -10.7 °C 34740.4 hPa Calm   5.1 km/h 96 % 0 mm
23:42 -10.6 °C -11.1 °C 34740.4 hPa WNW 2.6 km/h 5.1 km/h 95 % 0 mm
23:52 -10.7 °C -11 °C 34740.4 hPa Calm   5.1 km/h 96 % 0 mm
23:57 -10.6 °C -10.9 °C 34740.4 hPa Calm   5.1 km/h 96 % 0 mm
Meteo18
Compliments of Weather Underground - 4 mb

Script developed by  Jim McMurry - jmcmurry@mwt.net Adapted for the template by  Wim van der Kuil - Leuven-Template.eu

You find our weather info also at:

European Weather Network

Weather Underground

Equipment we use:

Weather-station
Davis Vue

Weather-program
Meteobridge

Weather-server
Raspberry PI 2 B+

Provider
1 and 1

Davis Vue

Meteobridge

Raspberry PI 2 B+

1 and 1